Time,TemperatureF,DewpointF,PressureIn,WindDirection,WindDirectionDegrees,WindSpeedMPH,WindSpeedGustMPH,Humidity,HourlyPrecipIn,Conditions,Clouds,dailyrainin,SoftwareType,DateUTC
2013-02-26 00:01:00,39.0,36.1,30.07,WNW,299,0.0,0.0,89,0.00,,,0.00,meteohub,2013-02-26 08:01:00,
2013-02-26 00:06:00,38.8,36.0,30.07,WNW,299,0.0,0.0,89,0.00,,,0.00,meteohub,2013-02-26 08:06:00,
2013-02-26 00:11:00,38.8,36.0,30.07,WNW,299,0.0,0.0,89,0.00,,,0.00,meteohub,2013-02-26 08:11:00,
2013-02-26 00:16:00,38.8,36.1,30.07,WNW,299,0.0,0.0,90,0.00,,,0.00,meteohub,2013-02-26 08:16:00,
2013-02-26 00:21:00,38.7,36.0,30.07,WNW,299,0.0,0.0,90,0.00,,,0.00,meteohub,2013-02-26 08:21:00,
2013-02-26 00:26:00,38.8,36.1,30.07,WNW,299,0.0,0.0,90,0.00,,,0.00,meteohub,2013-02-26 08:26:00,
2013-02-26 00:31:00,38.7,36.0,30.07,WNW,299,0.0,0.0,90,0.00,,,0.00,meteohub,2013-02-26 08:31:00,
2013-02-26 00:36:00,38.7,36.0,30.07,WNW,299,0.0,0.0,90,0.00,,,0.00,meteohub,2013-02-26 08:36:00,
2013-02-26 00:41:00,38.5,35.8,30.07,WNW,299,0.0,0.0,90,0.00,,,0.00,meteohub,2013-02-26 08:41:00,
2013-02-26 00:46:00,38.5,35.8,30.07,WNW,299,0.0,0.0,90,0.00,,,0.00,meteohub,2013-02-26 08:46:00,
2013-02-26 00:51:00,38.5,36.1,30.07,WNW,299,0.0,0.0,91,0.00,,,0.00,meteohub,2013-02-26 08:51:00,
2013-02-26 00:56:00,38.1,35.8,30.07,WNW,299,0.0,0.0,91,0.00,,,0.00,meteohub,2013-02-26 08:56:00,
2013-02-26 01:01:00,38.1,35.8,30.07,WNW,299,0.0,0.0,91,0.00,,,0.00,meteohub,2013-02-26 09:01:00,
2013-02-26 01:06:00,37.9,35.6,30.07,WNW,299,0.0,0.0,91,0.00,,,0.00,meteohub,2013-02-26 09:06:00,
2013-02-26 01:11:00,37.8,35.4,30.07,WNW,299,0.0,0.0,91,0.00,,,0.00,meteohub,2013-02-26 09:11:00,
2013-02-26 01:16:00,37.8,35.6,30.07,WNW,299,0.0,0.0,92,0.00,,,0.00,meteohub,2013-02-26 09:16:00,
2013-02-26 01:21:00,37.9,35.8,30.07,WNW,299,0.0,0.0,92,0.00,,,0.00,meteohub,2013-02-26 09:21:00,
2013-02-26 01:26:00,37.9,35.6,30.07,WNW,299,0.0,0.0,91,0.00,,,0.00,meteohub,2013-02-26 09:26:00,
2013-02-26 01:31:00,37.9,35.6,30.07,WNW,299,0.0,0.0,91,0.00,,,0.00,meteohub,2013-02-26 09:31:00,
2013-02-26 01:36:00,37.9,35.8,30.07,WNW,299,0.0,0.0,92,0.00,,,0.00,meteohub,2013-02-26 09:36:00,
2013-02-26 01:41:00,38.1,36.0,30.07,WNW,299,0.0,0.0,92,0.00,,,0.00,meteohub,2013-02-26 09:41:00,
2013-02-26 01:46:00,38.1,35.8,30.07,WNW,299,0.0,0.0,91,0.00,,,0.00,meteohub,2013-02-26 09:46:00,
2013-02-26 01:51:00,38.1,35.4,30.07,WNW,299,0.0,0.0,90,0.00,,,0.00,meteohub,2013-02-26 09:51:00,
2013-02-26 01:56:00,37.9,35.2,30.07,WNW,299,0.0,0.0,90,0.00,,,0.00,meteohub,2013-02-26 09:56:00,
2013-02-26 02:01:00,37.9,35.6,30.07,WNW,299,0.0,0.0,91,0.00,,,0.00,meteohub,2013-02-26 10:01:00,
2013-02-26 02:06:00,37.9,35.8,30.07,WNW,299,0.0,0.0,92,0.00,,,0.00,meteohub,2013-02-26 10:06:00,
2013-02-26 02:11:00,37.9,35.8,30.06,WNW,299,0.0,0.0,92,0.00,,,0.00,meteohub,2013-02-26 10:11:00,
2013-02-26 02:16:00,37.9,35.6,30.06,WNW,299,0.0,0.0,91,0.00,,,0.00,meteohub,2013-02-26 10:16:00,
2013-02-26 02:21:00,37.9,35.8,30.06,WNW,299,0.0,1.0,92,0.00,,,0.00,meteohub,2013-02-26 10:21:00,
2013-02-26 02:26:00,37.9,35.8,30.06,WNW,299,0.0,1.0,92,0.00,,,0.00,meteohub,2013-02-26 10:26:00,
2013-02-26 02:31:00,37.8,35.4,30.06,WNW,299,0.0,1.0,91,0.00,,,0.00,meteohub,2013-02-26 10:31:00,
2013-02-26 02:36:00,37.8,35.4,30.06,WNW,299,0.0,0.0,91,0.00,,,0.00,meteohub,2013-02-26 10:36:00,
2013-02-26 02:41:00,37.6,35.4,30.06,WNW,299,0.0,0.0,92,0.00,,,0.00,meteohub,2013-02-26 10:41:00,
2013-02-26 02:46:00,37.6,35.4,30.06,WNW,299,0.0,0.0,92,0.00,,,0.00,meteohub,2013-02-26 10:46:00,
2013-02-26 02:51:00,37.4,35.2,30.06,WNW,299,0.0,0.0,92,0.00,,,0.00,meteohub,2013-02-26 10:51:00,
2013-02-26 02:56:00,37.6,35.8,30.06,WNW,299,0.0,0.0,93,0.00,,,0.00,meteohub,2013-02-26 10:56:00,
2013-02-26 03:01:00,37.6,35.8,30.06,WNW,299,0.0,0.0,93,0.00,,,0.00,meteohub,2013-02-26 11:01:00,
2013-02-26 03:06:00,37.4,35.6,30.06,WNW,299,0.0,0.0,93,0.00,,,0.00,meteohub,2013-02-26 11:06:00,
2013-02-26 03:11:00,37.4,35.6,30.06,WNW,299,0.0,0.0,93,0.00,,,0.00,meteohub,2013-02-26 11:11:00,
2013-02-26 03:16:00,37.4,35.6,30.06,WNW,299,0.0,0.0,93,0.00,,,0.00,meteohub,2013-02-26 11:16:00,
2013-02-26 03:21:00,37.2,35.4,30.06,WNW,299,0.0,0.0,93,0.00,,,0.00,meteohub,2013-02-26 11:21:00,
2013-02-26 03:26:00,37.0,34.9,30.06,WNW,299,0.0,0.0,92,0.00,,,0.00,meteohub,2013-02-26 11:26:00,
2013-02-26 03:31:00,37.0,35.2,30.06,WNW,299,0.0,0.0,93,0.00,,,0.00,meteohub,2013-02-26 11:31:00,
2013-02-26 03:36:00,37.0,35.2,30.06,WNW,299,0.0,0.0,93,0.00,,,0.00,meteohub,2013-02-26 11:36:00,
2013-02-26 03:41:00,37.0,35.2,30.05,WNW,299,0.0,0.0,93,0.00,,,0.00,meteohub,2013-02-26 11:41:00,
2013-02-26 03:46:00,37.0,35.4,30.05,WNW,299,0.0,0.0,94,0.00,,,0.00,meteohub,2013-02-26 11:46:00,
2013-02-26 03:51:00,37.2,35.6,30.05,WNW,299,0.0,0.0,94,0.00,,,0.00,meteohub,2013-02-26 11:51:00,
2013-02-26 03:56:00,37.2,35.6,30.05,WNW,299,0.0,1.0,94,0.00,,,0.00,meteohub,2013-02-26 11:56:00,
2013-02-26 04:01:00,37.4,35.8,30.05,WNW,299,0.0,1.0,94,0.00,,,0.00,meteohub,2013-02-26 12:01:00,
2013-02-26 04:06:00,37.2,35.4,30.05,WNW,299,0.0,1.0,93,0.00,,,0.00,meteohub,2013-02-26 12:06:00,
2013-02-26 04:11:00,37.2,35.4,30.05,WNW,299,0.0,1.0,93,0.00,,,0.00,meteohub,2013-02-26 12:11:00,
2013-02-26 04:16:00,37.4,35.8,30.05,WNW,299,0.0,1.0,94,0.00,,,0.00,meteohub,2013-02-26 12:16:00,
2013-02-26 04:21:00,37.6,35.8,30.05,WNW,299,0.0,1.0,93,0.00,,,0.00,meteohub,2013-02-26 12:21:00,
2013-02-26 04:26:00,37.6,35.8,30.06,WNW,299,0.0,1.0,93,0.00,,,0.00,meteohub,2013-02-26 12:26:00,
2013-02-26 04:31:00,37.8,36.0,30.06,WNW,299,1.0,1.0,93,0.00,,,0.00,meteohub,2013-02-26 12:31:00,
2013-02-26 04:36:00,37.9,35.6,30.06,WNW,299,0.0,3.0,91,0.00,,,0.00,meteohub,2013-02-26 12:36:00,
2013-02-26 04:41:00,37.9,35.6,30.05,WNW,299,1.0,3.0,91,0.00,,,0.00,meteohub,2013-02-26 12:41:00,
2013-02-26 04:46:00,38.1,35.4,30.05,WNW,299,1.0,3.0,90,0.00,,,0.00,meteohub,2013-02-26 12:46:00,
2013-02-26 04:51:00,38.3,35.4,30.05,WNW,299,0.0,2.0,89,0.00,,,0.00,meteohub,2013-02-26 12:51:00,
2013-02-26 04:56:00,38.5,35.6,30.06,WNW,299,0.0,2.0,89,0.00,,,0.00,meteohub,2013-02-26 12:56:00,
2013-02-26 05:02:00,39.2,34.2,30.06,WNW,299,1.0,2.0,82,0.00,,,0.00,meteohub,2013-02-26 13:02:00,
2013-02-26 05:07:00,39.7,35.1,30.06,WNW,299,0.0,4.0,83,0.00,,,0.00,meteohub,2013-02-26 13:07:00,
2013-02-26 05:12:00,39.9,34.9,30.06,WNW,299,0.0,4.0,82,0.00,,,0.00,meteohub,2013-02-26 13:12:00,
2013-02-26 05:17:00,40.1,34.5,30.06,WNW,299,0.0,3.0,80,0.00,,,0.00,meteohub,2013-02-26 13:17:00,
2013-02-26 05:22:00,40.5,33.8,30.06,WNW,299,4.0,4.0,77,0.00,,,0.00,meteohub,2013-02-26 13:22:00,
2013-02-26 05:27:00,43.0,27.5,30.06,ENE,57,3.0,4.0,54,0.00,,,0.00,meteohub,2013-02-26 13:27:00,
2013-02-26 05:32:00,45.1,30.4,30.06,NE,46,3.0,12.0,56,0.00,,,0.00,meteohub,2013-02-26 13:32:00,
2013-02-26 05:37:00,46.0,32.5,30.06,NE,55,0.0,12.0,59,0.00,,,0.00,meteohub,2013-02-26 13:37:00,
2013-02-26 05:42:00,46.0,29.8,30.06,ENE,58,0.0,12.0,53,0.00,,,0.00,meteohub,2013-02-26 13:42:00,
2013-02-26 05:47:00,46.0,31.6,30.06,ENE,58,1.0,5.0,57,0.00,,,0.00,meteohub,2013-02-26 13:47:00,
2013-02-26 05:52:00,45.7,29.1,30.06,East,92,1.0,5.0,52,0.00,,,0.00,meteohub,2013-02-26 13:52:00,
2013-02-26 05:57:00,45.9,31.5,30.05,ENE,75,0.0,5.0,57,0.00,,,0.00,meteohub,2013-02-26 13:57:00,
2013-02-26 06:02:00,45.3,30.9,30.05,ENE,75,3.0,5.0,57,0.00,,,0.00,meteohub,2013-02-26 14:02:00,
2013-02-26 06:07:00,45.0,31.5,30.05,ENE,74,1.0,5.0,59,0.00,,,0.00,meteohub,2013-02-26 14:07:00,
2013-02-26 06:12:00,44.6,31.1,30.05,ENE,74,0.0,3.0,59,0.00,,,0.00,meteohub,2013-02-26 14:12:00,
2013-02-26 06:17:00,44.4,31.8,30.05,ENE,74,0.0,3.0,61,0.00,,,0.00,meteohub,2013-02-26 14:17:00,
2013-02-26 06:22:00,44.1,31.5,30.05,ENE,74,1.0,2.0,61,0.00,,,0.00,meteohub,2013-02-26 14:22:00,
2013-02-26 06:27:00,43.7,31.5,30.06,ENE,74,0.0,1.0,62,0.00,,,0.00,meteohub,2013-02-26 14:27:00,
2013-02-26 06:32:00,43.9,29.7,30.06,North,355,1.0,2.0,57,0.00,,,0.00,meteohub,2013-02-26 14:32:00,
2013-02-26 06:37:00,43.9,30.6,30.06,North,10,0.0,6.0,59,0.00,,,0.00,meteohub,2013-02-26 14:37:00,
2013-02-26 06:42:00,44.2,29.1,30.06,NNW,346,0.0,6.0,55,0.00,,,0.00,meteohub,2013-02-26 14:42:00,
2013-02-26 06:47:00,45.0,29.3,30.06,NE,37,3.0,5.0,54,0.00,,,0.00,meteohub,2013-02-26 14:47:00,
2013-02-26 06:52:00,45.5,29.3,30.06,NE,37,0.0,6.0,53,0.00,,,0.00,meteohub,2013-02-26 14:52:00,
2013-02-26 06:57:00,45.3,28.8,30.06,NE,37,1.0,6.0,52,0.00,,,0.00,meteohub,2013-02-26 14:57:00,
2013-02-26 07:02:00,45.0,29.8,30.06,NE,37,0.0,5.0,55,0.00,,,0.00,meteohub,2013-02-26 15:02:00,
2013-02-26 07:06:00,44.6,29.5,30.06,NE,37,0.0,4.0,55,0.00,,,0.00,meteohub,2013-02-26 15:06:00,
2013-02-26 07:12:00,44.1,30.2,30.06,NE,37,0.0,3.0,58,0.00,,,0.00,meteohub,2013-02-26 15:12:00,
2013-02-26 07:17:00,43.5,30.2,30.06,NE,37,0.0,3.0,59,0.00,,,0.00,meteohub,2013-02-26 15:17:00,
2013-02-26 07:22:00,42.8,29.8,30.06,NE,37,0.0,2.0,60,0.00,,,0.00,meteohub,2013-02-26 15:22:00,
2013-02-26 07:27:00,42.3,29.8,30.06,NE,37,0.0,2.0,61,0.00,,,0.00,meteohub,2013-02-26 15:27:00,
2013-02-26 07:32:00,42.1,30.7,30.06,NE,37,0.0,2.0,64,0.00,,,0.00,meteohub,2013-02-26 15:32:00,
2013-02-26 07:37:00,41.7,29.7,30.06,NE,37,0.0,1.0,62,0.00,,,0.00,meteohub,2013-02-26 15:37:00,
2013-02-26 07:42:00,41.5,30.2,30.07,NE,37,0.0,0.0,64,0.00,,,0.00,meteohub,2013-02-26 15:42:00,
2013-02-26 07:47:00,41.9,30.9,30.07,NE,37,0.0,0.0,65,0.00,,,0.00,meteohub,2013-02-26 15:47:00,
2013-02-26 07:52:00,43.0,29.7,30.07,NE,37,0.0,1.0,59,0.00,,,0.00,meteohub,2013-02-26 15:52:00,
2013-02-26 07:57:00,44.4,30.9,30.07,NE,37,0.0,1.0,59,0.00,,,0.00,meteohub,2013-02-26 15:57:00,
2013-02-26 08:02:00,46.4,29.7,30.07,NE,37,0.0,1.0,52,0.00,,,0.00,meteohub,2013-02-26 16:02:00,
2013-02-26 08:07:00,47.7,31.8,30.07,NE,37,0.0,2.0,54,0.00,,,0.00,meteohub,2013-02-26 16:07:00,
2013-02-26 08:12:00,49.1,32.7,30.08,NE,37,0.0,2.0,53,0.00,,,0.00,meteohub,2013-02-26 16:12:00,
2013-02-26 08:17:00,50.5,33.1,30.08,NE,37,0.0,2.0,51,0.00,,,0.00,meteohub,2013-02-26 16:17:00,
2013-02-26 08:22:00,51.4,29.7,30.08,NE,37,0.0,1.0,43,0.00,,,0.00,meteohub,2013-02-26 16:22:00,
2013-02-26 08:27:00,52.0,31.3,30.07,NE,37,0.0,1.0,45,0.00,,,0.00,meteohub,2013-02-26 16:27:00,
2013-02-26 08:32:00,52.3,29.3,30.07,NE,37,2.0,2.0,41,0.00,,,0.00,meteohub,2013-02-26 16:32:00,
2013-02-26 08:37:00,53.1,30.6,30.07,NE,37,0.0,3.0,42,0.00,,,0.00,meteohub,2013-02-26 16:37:00,
2013-02-26 08:42:00,53.8,30.0,30.07,NE,37,0.0,3.0,40,0.00,,,0.00,meteohub,2013-02-26 16:42:00,
2013-02-26 08:47:00,54.3,28.6,30.07,NE,37,0.0,3.0,37,0.00,,,0.00,meteohub,2013-02-26 16:47:00,
2013-02-26 08:52:00,55.0,27.9,30.07,NE,37,0.0,2.0,35,0.00,,,0.00,meteohub,2013-02-26 16:52:00,
2013-02-26 08:57:00,55.6,26.2,30.08,NE,37,0.0,2.0,32,0.00,,,0.00,meteohub,2013-02-26 16:57:00,
2013-02-26 09:02:00,55.8,27.9,30.08,NE,37,0.0,2.0,34,0.00,,,0.00,meteohub,2013-02-26 17:02:00,
2013-02-26 09:07:00,56.1,26.6,30.08,NE,37,0.0,1.0,32,0.00,,,0.00,meteohub,2013-02-26 17:07:00,
2013-02-26 09:12:00,56.8,26.6,30.08,NE,37,0.0,1.0,31,0.00,,,0.00,meteohub,2013-02-26 17:12:00,
2013-02-26 09:17:00,57.4,26.2,30.08,NE,37,0.0,1.0,30,0.00,,,0.00,meteohub,2013-02-26 17:17:00,
2013-02-26 09:22:00,57.9,23.2,30.08,NE,37,0.0,2.0,26,0.00,,,0.00,meteohub,2013-02-26 17:22:00,
2013-02-26 09:27:00,58.3,28.6,30.08,NE,37,0.0,2.0,32,0.00,,,0.00,meteohub,2013-02-26 17:27:00,
2013-02-26 09:32:00,58.5,24.6,30.08,NE,37,0.0,2.0,27,0.00,,,0.00,meteohub,2013-02-26 17:32:00,
2013-02-26 09:37:00,59.0,23.2,30.08,NE,37,0.0,1.0,25,0.00,,,0.00,meteohub,2013-02-26 17:37:00,
2013-02-26 09:42:00,59.5,22.6,30.08,NE,36,3.0,3.0,24,0.00,,,0.00,meteohub,2013-02-26 17:42:00,
2013-02-26 09:47:00,59.7,23.9,30.08,NE,46,0.0,4.0,25,0.00,,,0.00,meteohub,2013-02-26 17:47:00,
2013-02-26 09:52:00,60.1,22.1,30.08,SW,221,0.0,5.0,23,0.00,,,0.00,meteohub,2013-02-26 17:52:00,
2013-02-26 09:57:00,60.3,22.3,30.08,NW,308,7.0,10.0,23,0.00,,,0.00,meteohub,2013-02-26 17:57:00,
2013-02-26 10:02:00,60.3,21.2,30.08,West,270,0.0,10.0,22,0.00,,,0.00,meteohub,2013-02-26 18:02:00,
2013-02-26 10:07:00,60.6,24.6,30.08,West,270,0.0,10.0,25,0.00,,,0.00,meteohub,2013-02-26 18:07:00,
2013-02-26 10:12:00,61.0,19.6,30.07,West,269,0.0,7.0,20,0.00,,,0.00,meteohub,2013-02-26 18:12:00,
2013-02-26 10:17:00,61.3,25.2,30.07,West,269,0.0,4.0,25,0.00,,,0.00,meteohub,2013-02-26 18:17:00,
2013-02-26 10:22:00,61.7,24.6,30.07,West,269,0.0,4.0,24,0.00,,,0.00,meteohub,2013-02-26 18:22:00,
2013-02-26 10:27:00,61.9,23.7,30.06,West,269,0.0,4.0,23,0.00,,,0.00,meteohub,2013-02-26 18:27:00,
2013-02-26 10:32:00,62.1,23.9,30.06,West,269,0.0,1.0,23,0.00,,,0.00,meteohub,2013-02-26 18:32:00,
2013-02-26 10:37:00,62.2,23.9,30.06,West,269,0.0,2.0,23,0.00,,,0.00,meteohub,2013-02-26 18:37:00,
2013-02-26 10:42:00,63.1,22.6,30.06,West,269,0.0,2.0,21,0.00,,,0.00,meteohub,2013-02-26 18:42:00,
2013-02-26 10:47:00,63.1,22.6,30.06,West,269,1.0,3.0,21,0.00,,,0.00,meteohub,2013-02-26 18:47:00,
2013-02-26 10:52:00,63.5,22.8,30.06,West,269,0.0,3.0,21,0.00,,,0.00,meteohub,2013-02-26 18:52:00,
2013-02-26 10:57:00,63.7,23.0,30.06,West,266,0.0,3.0,21,0.00,,,0.00,meteohub,2013-02-26 18:57:00,
2013-02-26 11:02:00,64.0,21.0,30.06,West,269,3.0,3.0,19,0.00,,,0.00,meteohub,2013-02-26 19:02:00,
2013-02-26 11:07:00,64.2,22.3,30.06,North,9,1.0,6.0,20,0.00,,,0.00,meteohub,2013-02-26 19:07:00,
2013-02-26 11:12:00,64.4,21.2,30.06,NNE,13,2.0,7.0,19,0.00,,,0.00,meteohub,2013-02-26 19:12:00,
2013-02-26 11:17:00,64.4,22.5,30.06,North,350,2.0,7.0,20,0.00,,,0.00,meteohub,2013-02-26 19:17:00,
2013-02-26 11:22:00,64.6,24.8,30.06,North,350,1.0,6.0,22,0.00,,,0.00,meteohub,2013-02-26 19:22:00,
2013-02-26 11:27:00,64.8,23.9,30.06,NNW,343,0.0,5.0,21,0.00,,,0.00,meteohub,2013-02-26 19:27:00,
2013-02-26 11:32:00,65.3,24.4,30.06,NNW,343,2.0,4.0,21,0.00,,,0.00,meteohub,2013-02-26 19:32:00,
2013-02-26 11:37:00,65.5,24.4,30.06,NW,325,0.0,4.0,21,0.00,,,0.00,meteohub,2013-02-26 19:37:00,
2013-02-26 11:42:00,65.1,27.5,30.05,NW,325,0.0,4.0,24,0.00,,,0.00,meteohub,2013-02-26 19:42:00,
2013-02-26 11:47:00,65.3,26.6,30.05,NW,325,2.0,4.0,23,0.00,,,0.00,meteohub,2013-02-26 19:47:00,
2013-02-26 11:52:00,65.7,23.5,30.05,NW,325,1.0,4.0,20,0.00,,,0.00,meteohub,2013-02-26 19:52:00,
2013-02-26 11:57:00,66.2,25.2,30.05,WNW,293,5.0,5.0,21,0.00,,,0.00,meteohub,2013-02-26 19:57:00,
2013-02-26 12:02:00,66.0,22.6,30.05,WNW,294,0.0,6.0,19,0.00,,,0.00,meteohub,2013-02-26 20:02:00,
2013-02-26 12:07:00,66.4,27.5,30.05,WNW,294,0.0,6.0,23,0.00,,,0.00,meteohub,2013-02-26 20:07:00,
2013-02-26 12:12:00,66.0,26.1,30.05,WNW,294,0.0,6.0,22,0.00,,,0.00,meteohub,2013-02-26 20:12:00,
2013-02-26 12:17:00,65.8,25.9,30.05,WNW,294,0.0,4.0,22,0.00,,,0.00,meteohub,2013-02-26 20:17:00,
2013-02-26 12:22:00,65.8,27.0,30.05,WNW,294,0.0,3.0,23,0.00,,,0.00,meteohub,2013-02-26 20:22:00,
2013-02-26 12:27:00,65.8,25.9,30.05,WNW,295,0.0,4.0,22,0.00,,,0.00,meteohub,2013-02-26 20:27:00,
2013-02-26 12:32:00,65.7,25.7,30.05,WNW,295,1.0,4.0,22,0.00,,,0.00,meteohub,2013-02-26 20:32:00,
2013-02-26 12:37:00,65.8,25.9,30.05,WNW,294,5.0,5.0,22,0.00,,,0.00,meteohub,2013-02-26 20:37:00,
2013-02-26 12:42:00,65.8,30.0,30.04,WNW,294,2.0,5.0,26,0.00,,,0.00,meteohub,2013-02-26 20:42:00,
2013-02-26 12:47:00,65.8,30.0,30.04,WNW,293,3.0,5.0,26,0.00,,,0.00,meteohub,2013-02-26 20:47:00,
2013-02-26 12:52:00,66.0,26.1,30.04,West,261,3.0,5.0,22,0.00,,,0.00,meteohub,2013-02-26 20:52:00,
2013-02-26 12:57:00,66.0,25.0,30.04,West,271,0.0,7.0,21,0.00,,,0.00,meteohub,2013-02-26 20:57:00,
2013-02-26 13:02:00,66.4,27.5,30.04,West,272,4.0,9.0,23,0.00,,,0.00,meteohub,2013-02-26 21:02:00,
2013-02-26 13:07:00,66.4,27.5,30.04,West,273,0.0,9.0,23,0.00,,,0.00,meteohub,2013-02-26 21:07:00,
2013-02-26 13:12:00,66.2,27.3,30.02,West,273,1.0,5.0,23,0.00,,,0.00,meteohub,2013-02-26 21:12:00,
2013-02-26 13:17:00,66.0,26.1,30.02,West,273,2.0,5.0,22,0.00,,,0.00,meteohub,2013-02-26 21:17:00,
2013-02-26 13:22:00,66.0,26.1,30.02,SW,235,2.0,6.0,22,0.00,,,0.00,meteohub,2013-02-26 21:22:00,
2013-02-26 13:27:00,66.0,29.1,30.02,West,272,0.0,7.0,25,0.00,,,0.00,meteohub,2013-02-26 21:27:00,
2013-02-26 13:32:00,65.7,28.9,30.02,West,270,3.0,7.0,25,0.00,,,0.00,meteohub,2013-02-26 21:32:00,
2013-02-26 13:37:00,65.5,29.7,30.02,West,265,0.0,7.0,26,0.00,,,0.00,meteohub,2013-02-26 21:37:00,
2013-02-26 13:42:00,65.1,29.3,30.01,West,265,0.0,6.0,26,0.00,,,0.00,meteohub,2013-02-26 21:42:00,
2013-02-26 13:47:00,64.9,31.1,30.01,West,265,0.0,6.0,28,0.00,,,0.00,meteohub,2013-02-26 21:47:00,
2013-02-26 13:52:00,64.8,31.8,30.01,West,265,0.0,6.0,29,0.00,,,0.00,meteohub,2013-02-26 21:52:00,
2013-02-26 13:57:00,64.2,31.3,30.02,West,265,0.0,3.0,29,0.00,,,0.00,meteohub,2013-02-26 21:57:00,
2013-02-26 14:03:00,64.2,28.6,30.02,West,265,0.0,3.0,26,0.00,,,0.00,meteohub,2013-02-26 22:03:00,
2013-02-26 14:08:00,64.6,30.7,30.02,West,265,0.0,2.0,28,0.00,,,0.00,meteohub,2013-02-26 22:08:00,
2013-02-26 14:13:00,64.6,28.9,30.01,West,265,0.0,2.0,26,0.00,,,0.00,meteohub,2013-02-26 22:13:00,
2013-02-26 14:18:00,64.8,31.8,30.01,West,265,0.0,2.0,29,0.00,,,0.00,meteohub,2013-02-26 22:18:00,
2013-02-26 14:23:00,64.6,28.9,30.01,West,265,0.0,2.0,26,0.00,,,0.00,meteohub,2013-02-26 22:23:00,
2013-02-26 14:28:00,64.4,32.4,30.01,West,265,1.0,2.0,30,0.00,,,0.00,meteohub,2013-02-26 22:28:00,
2013-02-26 14:33:00,64.4,29.7,30.01,West,265,0.0,2.0,27,0.00,,,0.00,meteohub,2013-02-26 22:33:00,
2013-02-26 14:38:00,64.2,30.4,30.01,West,265,2.0,2.0,28,0.00,,,0.00,meteohub,2013-02-26 22:38:00,
2013-02-26 14:43:00,64.4,32.4,30.01,West,265,0.0,2.0,30,0.00,,,0.00,meteohub,2013-02-26 22:43:00,
2013-02-26 14:48:00,64.6,30.7,30.01,West,265,1.0,3.0,28,0.00,,,0.00,meteohub,2013-02-26 22:48:00,
2013-02-26 14:53:00,64.2,31.3,30.01,West,265,0.0,3.0,29,0.00,,,0.00,meteohub,2013-02-26 22:53:00,
2013-02-26 14:58:00,64.0,31.1,30.01,West,265,0.0,2.0,29,0.00,,,0.00,meteohub,2013-02-26 22:58:00,
2013-02-26 15:03:00,64.0,32.7,30.01,West,265,0.0,2.0,31,0.00,,,0.00,meteohub,2013-02-26 23:03:00,
2013-02-26 15:08:00,64.0,34.3,30.01,West,265,0.0,2.0,33,0.00,,,0.00,meteohub,2013-02-26 23:08:00,
2013-02-26 15:13:00,64.0,35.8,30.01,West,265,1.0,2.0,35,0.00,,,0.00,meteohub,2013-02-26 23:13:00,
2013-02-26 15:18:00,64.0,36.5,30.01,West,265,1.0,2.0,36,0.00,,,0.00,meteohub,2013-02-26 23:18:00,
2013-02-26 15:23:00,63.9,34.9,30.01,West,265,0.0,2.0,34,0.00,,,0.00,meteohub,2013-02-26 23:23:00,
2013-02-26 15:28:00,63.5,36.7,30.01,West,265,0.0,2.0,37,0.00,,,0.00,meteohub,2013-02-26 23:28:00,
2013-02-26 15:33:00,63.3,35.2,30.01,WNW,288,0.0,2.0,35,0.00,,,0.00,meteohub,2013-02-26 23:33:00,
2013-02-26 15:38:00,63.5,36.7,30.01,WNW,289,1.0,6.0,37,0.00,,,0.00,meteohub,2013-02-26 23:38:00,
2013-02-26 15:43:00,63.3,38.7,30.01,WNW,289,1.0,6.0,40,0.00,,,0.00,meteohub,2013-02-26 23:43:00,
2013-02-26 15:48:00,63.0,37.6,30.01,WNW,289,0.0,6.0,39,0.00,,,0.00,meteohub,2013-02-26 23:48:00,
2013-02-26 15:53:00,62.4,37.8,30.01,WNW,289,0.0,2.0,40,0.00,,,0.00,meteohub,2013-02-26 23:53:00,
2013-02-26 15:58:00,62.1,38.7,30.01,WNW,289,0.0,2.0,42,0.00,,,0.00,meteohub,2013-02-26 23:58:00,
2013-02-26 16:03:00,61.5,38.8,30.01,WNW,289,2.0,2.0,43,0.00,,,0.00,meteohub,2013-02-27 00:03:00,
2013-02-26 16:08:00,61.2,40.3,30.01,WNW,289,0.0,3.0,46,0.00,,,0.00,meteohub,2013-02-27 00:08:00,
2013-02-26 16:13:00,60.6,39.2,30.01,WNW,289,0.0,3.0,45,0.00,,,0.00,meteohub,2013-02-27 00:13:00,
2013-02-26 16:18:00,60.4,39.0,30.01,WNW,289,0.0,3.0,45,0.00,,,0.00,meteohub,2013-02-27 00:18:00,
2013-02-26 16:23:00,60.3,41.0,30.01,WNW,289,0.0,1.0,49,0.00,,,0.00,meteohub,2013-02-27 00:23:00,
2013-02-26 16:28:00,59.9,39.0,30.01,WNW,289,0.0,1.0,46,0.00,,,0.00,meteohub,2013-02-27 00:28:00,
2013-02-26 16:33:00,59.5,40.8,30.01,WNW,289,0.0,1.0,50,0.00,,,0.00,meteohub,2013-02-27 00:33:00,
2013-02-26 16:38:00,59.2,40.6,30.01,WNW,289,0.0,1.0,50,0.00,,,0.00,meteohub,2013-02-27 00:38:00,
2013-02-26 16:43:00,58.8,39.7,30.01,WNW,289,0.0,0.0,49,0.00,,,0.00,meteohub,2013-02-27 00:43:00,
2013-02-26 16:48:00,58.6,40.6,30.01,WNW,289,0.0,0.0,51,0.00,,,0.00,meteohub,2013-02-27 00:48:00,
2013-02-26 16:53:00,58.3,40.3,30.01,WNW,289,0.0,0.0,51,0.00,,,0.00,meteohub,2013-02-27 00:53:00,
2013-02-26 16:58:00,57.7,41.2,30.01,WNW,289,0.0,0.0,54,0.00,,,0.00,meteohub,2013-02-27 00:58:00,
2013-02-26 17:03:00,57.6,40.6,30.01,WNW,289,0.0,0.0,53,0.00,,,0.00,meteohub,2013-02-27 01:03:00,
2013-02-26 17:08:00,57.6,40.1,30.01,WNW,289,0.0,0.0,52,0.00,,,0.00,meteohub,2013-02-27 01:08:00,
2013-02-26 17:13:00,57.0,40.1,30.02,WNW,289,0.0,0.0,53,0.00,,,0.00,meteohub,2013-02-27 01:13:00,
2013-02-26 17:18:00,56.7,40.3,30.02,WNW,289,0.0,0.0,54,0.00,,,0.00,meteohub,2013-02-27 01:18:00,
2013-02-26 17:23:00,56.1,40.1,30.02,WNW,289,0.0,0.0,55,0.00,,,0.00,meteohub,2013-02-27 01:23:00,
2013-02-26 17:28:00,55.8,39.4,30.02,WNW,289,0.0,0.0,54,0.00,,,0.00,meteohub,2013-02-27 01:28:00,
2013-02-26 17:33:00,55.2,39.7,30.02,WNW,289,0.0,0.0,56,0.00,,,0.00,meteohub,2013-02-27 01:33:00,
2013-02-26 17:38:00,54.7,39.7,30.02,WNW,289,0.0,0.0,57,0.00,,,0.00,meteohub,2013-02-27 01:38:00,
2013-02-26 17:43:00,54.1,39.7,30.02,WNW,289,0.0,0.0,58,0.00,,,0.00,meteohub,2013-02-27 01:43:00,
2013-02-26 17:48:00,53.8,39.4,30.02,WNW,289,0.0,0.0,58,0.00,,,0.00,meteohub,2013-02-27 01:48:00,
2013-02-26 17:53:00,53.2,39.7,30.02,WNW,289,0.0,0.0,60,0.00,,,0.00,meteohub,2013-02-27 01:53:00,
2013-02-26 17:58:00,52.9,39.4,30.03,WNW,289,0.0,1.0,60,0.00,,,0.00,meteohub,2013-02-27 01:58:00,
2013-02-26 18:04:00,52.5,39.9,30.03,WNW,289,0.0,1.0,62,0.00,,,0.00,meteohub,2013-02-27 02:04:00,
2013-02-26 18:08:00,52.2,39.6,30.03,WNW,289,0.0,1.0,62,0.00,,,0.00,meteohub,2013-02-27 02:08:00,
2013-02-26 18:14:00,51.6,38.7,30.03,WNW,289,0.0,0.0,61,0.00,,,0.00,meteohub,2013-02-27 02:14:00,
2013-02-26 18:19:00,51.3,39.6,30.03,WNW,289,0.0,0.0,64,0.00,,,0.00,meteohub,2013-02-27 02:19:00,
2013-02-26 18:24:00,50.9,38.8,30.03,WNW,289,0.0,0.0,63,0.00,,,0.00,meteohub,2013-02-27 02:24:00,
2013-02-26 18:29:00,50.5,38.8,30.03,WNW,289,0.0,0.0,64,0.00,,,0.00,meteohub,2013-02-27 02:29:00,
2013-02-26 18:34:00,50.4,38.3,30.03,WNW,289,0.0,0.0,63,0.00,,,0.00,meteohub,2013-02-27 02:34:00,
2013-02-26 18:39:00,50.0,37.9,30.04,WNW,289,0.0,0.0,63,0.00,,,0.00,meteohub,2013-02-27 02:39:00,
2013-02-26 18:44:00,49.8,37.8,30.04,WNW,289,0.0,0.0,63,0.00,,,0.00,meteohub,2013-02-27 02:44:00,
2013-02-26 18:49:00,49.6,37.6,30.04,WNW,289,0.0,0.0,63,0.00,,,0.00,meteohub,2013-02-27 02:49:00,
2013-02-26 18:54:00,49.5,37.4,30.04,WNW,289,0.0,0.0,63,0.00,,,0.00,meteohub,2013-02-27 02:54:00,
2013-02-26 18:59:00,49.3,37.2,30.04,WNW,289,0.0,0.0,63,0.00,,,0.00,meteohub,2013-02-27 02:59:00,
2013-02-26 19:04:00,49.3,35.6,30.04,WNW,289,0.0,0.0,59,0.00,,,0.00,meteohub,2013-02-27 03:04:00,
2013-02-26 19:09:00,49.8,36.1,30.04,WNW,289,0.0,0.0,59,0.00,,,0.00,meteohub,2013-02-27 03:09:00,
2013-02-26 19:14:00,50.0,36.7,30.04,WNW,289,0.0,1.0,60,0.00,,,0.00,meteohub,2013-02-27 03:14:00,
2013-02-26 19:19:00,49.8,36.5,30.04,WNW,289,0.0,1.0,60,0.00,,,0.00,meteohub,2013-02-27 03:19:00,
2013-02-26 19:24:00,49.6,36.0,30.04,WNW,289,0.0,1.0,59,0.00,,,0.00,meteohub,2013-02-27 03:24:00,
2013-02-26 19:29:00,49.3,36.0,30.04,WNW,289,0.0,0.0,60,0.00,,,0.00,meteohub,2013-02-27 03:29:00,
2013-02-26 19:34:00,48.7,36.0,30.04,WNW,289,0.0,0.0,61,0.00,,,0.00,meteohub,2013-02-27 03:34:00,
2013-02-26 19:39:00,48.6,36.5,30.05,WNW,289,0.0,0.0,63,0.00,,,0.00,meteohub,2013-02-27 03:39:00,
2013-02-26 19:44:00,48.0,36.0,30.05,WNW,289,0.0,0.0,63,0.00,,,0.00,meteohub,2013-02-27 03:44:00,
2013-02-26 19:49:00,47.8,36.7,30.05,WNW,289,0.0,0.0,65,0.00,,,0.00,meteohub,2013-02-27 03:49:00,
2013-02-26 19:54:00,47.7,36.1,30.05,WNW,289,0.0,0.0,64,0.00,,,0.00,meteohub,2013-02-27 03:54:00,
2013-02-26 19:59:00,47.3,36.1,30.05,WNW,289,0.0,0.0,65,0.00,,,0.00,meteohub,2013-02-27 03:59:00,
2013-02-26 20:04:00,47.1,36.3,30.05,WNW,289,0.0,0.0,66,0.00,,,0.00,meteohub,2013-02-27 04:04:00,
2013-02-26 20:09:00,46.9,36.5,30.05,WNW,289,0.0,0.0,67,0.00,,,0.00,meteohub,2013-02-27 04:09:00,
2013-02-26 20:14:00,46.8,36.7,30.05,WNW,289,0.0,0.0,68,0.00,,,0.00,meteohub,2013-02-27 04:14:00,
2013-02-26 20:19:00,46.8,36.7,30.05,WNW,289,0.0,0.0,68,0.00,,,0.00,meteohub,2013-02-27 04:19:00,
2013-02-26 20:24:00,46.6,36.5,30.05,WNW,289,0.0,1.0,68,0.00,,,0.00,meteohub,2013-02-27 04:24:00,
2013-02-26 20:29:00,46.6,36.5,30.05,WNW,289,0.0,1.0,68,0.00,,,0.00,meteohub,2013-02-27 04:29:00,
2013-02-26 20:34:00,46.4,36.5,30.05,WNW,289,0.0,1.0,68,0.00,,,0.00,meteohub,2013-02-27 04:34:00,
2013-02-26 20:39:00,46.0,36.5,30.05,WNW,289,0.0,1.0,69,0.00,,,0.00,meteohub,2013-02-27 04:39:00,
2013-02-26 20:44:00,46.0,36.5,30.05,WNW,289,0.0,1.0,69,0.00,,,0.00,meteohub,2013-02-27 04:44:00,
2013-02-26 20:49:00,45.7,36.1,30.05,WNW,289,0.0,0.0,69,0.00,,,0.00,meteohub,2013-02-27 04:49:00,
2013-02-26 20:54:00,45.3,36.5,30.06,WNW,289,0.0,0.0,71,0.00,,,0.00,meteohub,2013-02-27 04:54:00,
2013-02-26 20:59:00,45.1,36.3,30.06,WNW,289,0.0,0.0,71,0.00,,,0.00,meteohub,2013-02-27 04:59:00,
2013-02-26 21:00:00,45.1,36.3,30.06,WNW,289,0.0,0.0,71,0.00,,,0.00,meteohub,2013-02-27 05:00:00,
2013-02-26 21:05:00,45.0,36.5,30.06,WNW,289,0.0,0.0,72,0.00,,,0.00,meteohub,2013-02-27 05:05:00,
2013-02-26 21:10:00,44.8,36.7,30.06,WNW,289,0.0,0.0,73,0.00,,,0.00,meteohub,2013-02-27 05:10:00,
2013-02-26 21:15:00,44.4,36.7,30.06,WNW,289,0.0,0.0,74,0.00,,,0.00,meteohub,2013-02-27 05:15:00,
2013-02-26 21:20:00,44.2,36.5,30.06,WNW,289,0.0,0.0,74,0.00,,,0.00,meteohub,2013-02-27 05:20:00,
2013-02-26 21:25:00,44.2,36.5,30.06,WNW,289,0.0,0.0,74,0.00,,,0.00,meteohub,2013-02-27 05:25:00,
2013-02-26 21:30:00,44.1,36.7,30.06,WNW,289,0.0,0.0,75,0.00,,,0.00,meteohub,2013-02-27 05:30:00,
2013-02-26 21:35:00,43.9,36.5,30.06,WNW,289,0.0,0.0,75,0.00,,,0.00,meteohub,2013-02-27 05:35:00,
2013-02-26 21:40:00,43.7,36.3,30.07,WNW,289,0.0,0.0,75,0.00,,,0.00,meteohub,2013-02-27 05:40:00,
2013-02-26 21:45:00,43.5,36.1,30.07,WNW,289,0.0,0.0,75,0.00,,,0.00,meteohub,2013-02-27 05:45:00,
2013-02-26 21:50:00,43.3,36.3,30.07,WNW,289,0.0,0.0,76,0.00,,,0.00,meteohub,2013-02-27 05:50:00,
2013-02-26 21:55:00,43.3,36.3,30.07,WNW,289,0.0,0.0,76,0.00,,,0.00,meteohub,2013-02-27 05:55:00,
2013-02-26 22:00:00,43.2,36.5,30.07,WNW,289,0.0,0.0,77,0.00,,,0.00,meteohub,2013-02-27 06:00:00,
2013-02-26 22:05:00,43.2,36.5,30.07,WNW,289,0.0,0.0,77,0.00,,,0.00,meteohub,2013-02-27 06:05:00,
2013-02-26 22:10:00,43.0,36.3,30.07,WNW,289,0.0,0.0,77,0.00,,,0.00,meteohub,2013-02-27 06:10:00,
2013-02-26 22:15:00,43.0,36.3,30.07,WNW,289,0.0,0.0,77,0.00,,,0.00,meteohub,2013-02-27 06:15:00,
2013-02-26 22:20:00,42.8,36.5,30.07,WNW,289,0.0,0.0,78,0.00,,,0.00,meteohub,2013-02-27 06:20:00,
2013-02-26 22:25:00,42.6,36.0,30.06,WNW,289,0.0,0.0,77,0.00,,,0.00,meteohub,2013-02-27 06:25:00,
2013-02-26 22:30:00,42.4,35.8,30.06,WNW,289,0.0,0.0,77,0.00,,,0.00,meteohub,2013-02-27 06:30:00,
2013-02-26 22:35:00,42.4,36.1,30.06,WNW,289,0.0,0.0,78,0.00,,,0.00,meteohub,2013-02-27 06:35:00,
2013-02-26 22:40:00,42.3,36.0,30.06,WNW,289,0.0,0.0,78,0.00,,,0.00,meteohub,2013-02-27 06:40:00,
2013-02-26 22:45:00,42.3,36.0,30.06,WNW,289,0.0,0.0,78,0.00,,,0.00,meteohub,2013-02-27 06:45:00,
2013-02-26 22:51:00,42.1,35.1,30.06,WNW,289,0.0,0.0,76,0.00,,,0.00,meteohub,2013-02-27 06:51:00,
2013-02-26 22:56:00,42.1,35.1,30.07,WNW,289,0.0,0.0,76,0.00,,,0.00,meteohub,2013-02-27 06:56:00,
2013-02-26 23:01:00,42.1,35.1,30.07,WNW,289,0.0,0.0,76,0.00,,,0.00,meteohub,2013-02-27 07:01:00,
2013-02-26 23:06:00,42.1,35.1,30.07,WNW,289,0.0,0.0,76,0.00,,,0.00,meteohub,2013-02-27 07:06:00,
2013-02-26 23:11:00,42.1,35.1,30.07,WNW,289,0.0,0.0,76,0.00,,,0.00,meteohub,2013-02-27 07:11:00,
2013-02-26 23:16:00,42.1,35.4,30.07,WNW,289,0.0,0.0,77,0.00,,,0.00,meteohub,2013-02-27 07:16:00,
2013-02-26 23:21:00,42.1,35.1,30.07,WNW,289,0.0,0.0,76,0.00,,,0.00,meteohub,2013-02-27 07:21:00,
2013-02-26 23:26:00,41.9,34.9,30.07,WNW,289,0.0,0.0,76,0.00,,,0.00,meteohub,2013-02-27 07:26:00,
2013-02-26 23:31:00,41.7,35.4,30.07,WNW,289,0.0,0.0,78,0.00,,,0.00,meteohub,2013-02-27 07:31:00,
2013-02-26 23:36:00,41.7,34.7,30.07,WNW,289,0.0,0.0,76,0.00,,,0.00,meteohub,2013-02-27 07:36:00,
2013-02-26 23:41:00,41.7,35.1,30.06,WNW,289,0.0,0.0,77,0.00,,,0.00,meteohub,2013-02-27 07:41:00,
2013-02-26 23:46:00,41.7,35.1,30.06,WNW,289,0.0,0.0,77,0.00,,,0.00,meteohub,2013-02-27 07:46:00,
2013-02-26 23:51:00,41.7,35.1,30.06,WNW,289,0.0,0.0,77,0.00,,,0.00,meteohub,2013-02-27 07:51:00,
2013-02-26 23:56:00,41.5,34.9,30.06,WNW,289,0.0,0.0,77,0.00,,,0.00,meteohub,2013-02-27 07:56:00,